Weather History for Curtin, WE

Change the Weather History Date:

Wednesday, April 10, 2013

  Actual Average Record
Temperature  
Mean Temperature 86 °F -  
Max Temperature 101 °F - - ()
Min Temperature 71 °F - - ()
Cooling Degree Days 21    
Growing Degree Days 36 (Base 50)    
Moisture  
Dew Point 58 °F    
Average Humidity 43    
Maximum Humidity 83    
Minimum Humidity 12    
Precipitation  
Precipitation 0.00 in - - ()
Sea Level Pressure  
Sea Level Pressure 29.83 in    
Wind  
Wind Speed 5 mph ()    
Max Wind Speed 13 mph    
Max Gust Speed -    
T = Trace of Precipitation, MM = Missing Value Source: Averaged Metar Reports

Daily Weather History Graph

Daily Weather History Graph

Search for Another Location

Airport:

Trip Planner

Search our weather history database for the weather conditions in past years. The results will help you decide how hot, cold, wet, or windy it might be!

Date:

Astronomy

Apr. 10, 2013 Rise Set
Actual Time 5:52 AM AWST 5:39 PM AWST
Civil Twilight 5:30 AM AWST 6:01 PM AWST
Nautical Twilight 5:05 AM AWST 6:26 PM AWST
Astronomical Twilight 4:40 AM AWST 6:51 PM AWST
Moon 5:30 AM AWST (4/10) 5:28 PM AWST (4/10)
Length of Visible Light 12h 30m
Length of Day
11h 46m
Waning Crescent, 0% of the Moon is Illuminated
Apr 10
Waning Crescent
Apr 10
New
Apr 18
First Quarter
Apr 26
Full
May 2
Last Quarter

Hourly Weather History & Observations

Time (AWST) Temp. Heat Index Dew Point Humidity Pressure Visibility Wind Dir Wind Speed Gust Speed Precip Events Conditions
12:00 AM 80 °F - 67 °F 57% 29.86 in - SSE 4.6 mph - -  
12:00 AM 80.6 °F 83.2 °F 68.0 °F 65% 29.86 in - SSE 4.6 mph - N/A   Unknown
1:00 AM 77.0 °F - 68.0 °F 74% 29.86 in - SE 2.3 mph - N/A   Unknown
2:00 AM 77.0 °F - 64.4 °F 65% 29.83 in - SE 4.6 mph - N/A   Unknown
3:00 AM 74 °F - 65 °F 68% 29.84 in - SE 5.8 mph - -  
3:00 AM 75.2 °F - 66.2 °F 73% 29.83 in - SE 5.8 mph - N/A   Unknown
4:00 AM 71.6 °F - 66.2 °F 83% 29.83 in - SSE 4.6 mph - N/A   Unknown
5:00 AM 71.6 °F - 64.4 °F 78% 29.83 in - SSE 4.6 mph - N/A   Unknown
6:00 AM 74 °F - 60 °F 53% 29.85 in - ESE 6.9 mph - -  
6:00 AM 73.4 °F - 60.8 °F 65% 29.86 in - ESE 6.9 mph - N/A   Unknown
7:00 AM 78.8 °F - 59.0 °F 51% 29.86 in - SE 9.2 mph - N/A   Unknown
8:00 AM 84.2 °F 84.4 °F 60.8 °F 45% 29.89 in - ESE 6.9 mph - N/A   Unknown
9:00 AM 92 °F - 58 °F 22% 29.88 in - East 8.1 mph - -  
9:00 AM 91.4 °F 89.9 °F 57.2 °F 31% 29.89 in - East 8.1 mph - N/A   Unknown
10:00 AM 96.8 °F 96.2 °F 59.0 °F 28% 29.86 in - ENE 6.9 mph - N/A   Unknown
11:00 AM 98.6 °F - 51.8 °F 21% 29.83 in - ENE 12.7 mph - N/A   Unknown
12:00 PM 100 °F - 55 °F 14% 29.81 in - East 8.1 mph - -  
12:00 PM 100.4 °F 98.8 °F 55.4 °F 22% 29.83 in - East 8.1 mph - N/A   Unknown
1:00 PM 100.4 °F 98.4 °F 53.6 °F 21% 29.80 in - East 6.9 mph - N/A   Unknown
2:00 PM 98.6 °F - 51.8 °F 21% 29.77 in - ESE 9.2 mph - N/A   Unknown
3:00 PM 98 °F - 50 °F 12% 29.76 in - ESE 8.1 mph - -  
3:00 PM 98.6 °F - 50.0 °F 19% 29.77 in - ESE 8.1 mph - N/A   Unknown
4:00 PM 98.6 °F - 51.8 °F 21% 29.77 in - East 6.9 mph - N/A   Unknown
5:00 PM 93.2 °F 91.3 °F 55.4 °F 28% 29.77 in - East 6.9 mph - N/A   Unknown
5:52 PM 84.2 °F 83.0 °F 55.4 °F 37% 29.80 in - ESE 3.5 mph - N/A   Unknown
6:00 PM 84 °F - 56 °F 28% 29.79 in - ESE 2.3 mph - -  
6:00 PM 84.2 °F 83.0 °F 55.4 °F 37% 29.80 in - ESE 2.3 mph - N/A   Unknown
7:00 PM 78.8 °F - 57.2 °F 47% 29.80 in - East 3.5 mph - N/A   Unknown
8:00 PM 75.2 °F - 57.2 °F 53% 29.83 in - ESE 4.6 mph - N/A   Unknown
9:00 PM 76 °F - 58 °F 44% 29.83 in - SE 3.5 mph - -  
9:00 PM 75.2 °F - 59.0 °F 57% 29.83 in - SE 3.5 mph - N/A   Unknown
10:00 PM 78.8 °F - 55.4 °F 44% 29.83 in - ESE 5.8 mph - N/A   Unknown
11:00 PM 84.2 °F - 48.2 °F 29% 29.83 in - ESE 9.2 mph - N/A   Unknown